Flag for Germany Weather past 2 weeks in Naumburg (Saale), Saxony-Anhalt, Germany

Now
46 °F

Overcast.


Feels Like: 41 °F
Forecast: 49 / 51 °F
Wind: 10 mph from Southwest

Location: Gera-Leumnitz

Current Time: Dec 22, 2014 at 5:36:06 PM

Latest Report: Dec 22, 2014 at 5:00 PM


Visibility: 38 mi

Pressure: 30.03 "Hg

Humidity: 78%

Dew point: 40 °F

Location of Naumburg (Saale)Location

Historic Weather in Naumburg (Saale) — Graph

°F

Naumburg (Saale) temperature yesterday

Maximum temperature yesterday: 42 °F (at 1:00 PM)
Minimum temperature yesterday: 37 °F (at 1:00 AM)
Average temperature yesterday: 40 °F

Past Weeks' High & Low Weather Summary

 TemperatureHumidityPressure
High54 °F (Dec 19, 12:00 AM)100% (Dec 14, 10:00 PM)30.45 "Hg (Dec 14, 10:00 PM)
Low26 °F (Dec 9, 5:00 AM)63% (Dec 15, 2:00 PM)29.54 "Hg (Dec 12, 8:00 PM)
Average39 °F85%29.99 "Hg
* Reported Dec 7 4:00 PM — Dec 22 4:00 PM, Naumburg (Saale), Weather by CustomWeather, © 2014

Note: Actual official high and low records may vary slightly from our data, if they occured in-between our weather recording intervals... More about our weather records

Advertising

Naumburg (Saale) weather history for previous 24 hours

 ConditionsComfort  
Time TempWeatherWind HumidityBarometerVisibility
4:00 PM
Dec 22
47 °FOvercast.12 mph74%30.03 "Hg43 mi
3:00 PM47 °FOvercast.10 mph76%30.01 "Hg43 mi
2:00 PM46 °FOvercast.10 mph79%30.00 "Hg43 mi
1:00 PM45 °FOvercast.13 mph79%30.03 "Hg43 mi
12:00 PM45 °FOvercast.14 mph79%30.03 "Hg40 mi
11:00 AM45 °FOvercast.12 mph77%30.05 "Hg43 mi
10:00 AM45 °FOvercast.10 mph77%30.06 "Hg43 mi
9:00 AM44 °FOvercast.10 mph78%30.06 "Hg40 mi
8:00 AM44 °FOvercast.12 mph77%30.05 "Hg40 mi
7:00 AM43 °FOvercast.13 mph78%30.06 "Hg40 mi
6:00 AM43 °FOvercast.13 mph79%30.06 "Hg37 mi
5:00 AM43 °FOvercast.13 mph77%30.08 "Hg43 mi
4:00 AM43 °FOvercast.14 mph76%30.09 "Hg43 mi
3:00 AM43 °FOvercast.8 mph76%30.12 "Hg43 mi
2:00 AM43 °FPassing clouds.10 mph77%30.13 "Hg43 mi
1:00 AM42 °FPassing clouds.10 mph78%30.14 "Hg43 mi
12:00 AM42 °FOvercast.12 mph77%30.18 "Hg43 mi
11:00 PM
Dec 21
42 °FOvercast.12 mph77%30.19 "Hg43 mi
10:00 PM42 °FOvercast.10 mph77%30.20 "Hg43 mi
9:00 PM42 °FOvercast.12 mph77%30.23 "Hg22 mi
8:00 PM41 °FOvercast.9 mph77%30.24 "Hg22 mi
7:00 PM41 °FOvercast.8 mph77%30.26 "Hg25 mi
6:00 PM40 °FOvercast.9 mph75%30.27 "Hg25 mi
5:00 PM40 °FOvercast.7 mph77%30.29 "Hg25 mi
Weather by CustomWeather, © 2014

See weather overviewHow to use our weather pages